Regional Weather Roundup
Issued by NWS

Home | Current Version | Previous Version | Graphics & Text | Print | Product List | Glossary On
Versions: 1 2 3 4 5 6 7 8 9 10 11 12 13 14 15 16 17 18 19 20 21 22 23 24 25 26 27 28 29 30 31 32 33 34 35 36 37 38 39 40 41 42 43 44 45 46 47 48 49 50
257
ASUS43 KMKX 220500
RWRWI

WISCONSIN REGIONAL WEATHER ROUNDUP
NATIONAL WEATHER SERVICE MILWAUKEE/SULLIVAN WI
1200 AM CDT SUN APR 22 2018

NOTE: "FAIR" INDICATES FEW OR NO CLOUDS BELOW 12,000 FEET WITH NO
SIGNIFICANT WEATHER AND/OR OBSTRUCTIONS TO VISIBILITY.

WIZ001-002-006>008-014>016-023>028-220600-
NORTHWEST WISCONSIN

CITY           SKY/WX    TMP DP  RH WIND       PRES   REMARKS
SUPERIOR ARPT  FAIR      32  25  74 E3        30.36S
ASHLAND        FAIR      28  23  81 W5        30.36F WCI  23
HAYWARD        FAIR      29  22  75 N3        30.36S
SIREN          FAIR      31  19  61 CALM      30.36S
CUMBERLAND     FAIR      34  14  44 CALM      30.35F
RICE LAKE      FAIR      32  27  80 CALM      30.37F
CHETEK         FAIR      32  24  71 CALM      30.36S
LADYSMITH      FAIR      33  25  73 CALM      30.37S
EAU CLAIRE     NOT AVBL
MENOMONIE      FAIR      40  32  72 CALM      30.36F
NEW RICHMOND   FAIR      37  29  74 SE3       30.36S
OSCEOLA        FAIR      34  26  72 CALM      30.38S
$$

WIZ003>005-009-010-017-018-220600-
NORTH CENTRAL WISCONSIN

CITY           SKY/WX    TMP DP  RH WIND       PRES   REMARKS
MANITOWISH WTR FAIR      29  19  66 CALM      30.36S
ARBOR VITAE    FAIR      33  20  60 CALM      30.35F
WOODRUFF       FAIR      33  20  60 CALM      30.35F
RHINELANDER    FAIR      37  25  61 CALM      30.36S
EAGLE RIVER    FAIR      31  19  61 CALM      30.35F
LAND O LAKES   FAIR      29  21  71 CALM      30.38S
PHILLIPS       FAIR      29  23  75 CALM      30.35S
TOMAHAWK       FAIR      29  23  76 CALM      30.37S
MEDFORD        FAIR      32  27  79 CALM      30.35F
MERRILL          N/A     31  24  77 CALM      30.37S
$$

WIZ029-030-035-036-043>047-220600-
CENTRAL WISCONSIN

CITY           SKY/WX    TMP DP  RH WIND       PRES   REMARKS
WAUSAU         FAIR      34  26  72 CALM      30.35S
MOSINEE        FAIR      41  27  56 S3        30.38S
MARSHFIELD     FAIR      41  26  55 SW5       30.35F
STEVENS POINT  FAIR      32  25  76 CALM      30.38S
WAUPACA        FAIR      36  30  77 CALM      30.38S
WAUTOMA        FAIR      32  28  85 CALM      30.38S
WISC RAPIDS    FAIR      35  25  66 CALM      30.38S
CAMP DOUGLAS   FAIR      33  29  86 CALM      30.36F
$$

WIZ011>013-019>022-031-037>040-048>050-220600-
NORTHEAST WISCONSIN

CITY           SKY/WX    TMP DP  RH WIND       PRES   REMARKS
ANTIGO         FAIR      32  29  87 CALM      30.37S
SHAWANO        FAIR      36  26  65 CALM      30.37S
OCONTO         FAIR      33  23  68 CALM      30.38S
STURGEON BAY   FAIR      40  23  50 S5        30.39S
GREEN BAY      FAIR      36  27  69 SW3       30.38S
MANITOWOC      FAIR      35  25  66 CALM      30.39F
APPLETON       FAIR      41  25  52 CALM      30.36F
CLINTONVILLE   FAIR      33  25  73 CALM      30.37S
OSHKOSH        FAIR      36  30  79 CALM      30.37F
$$

WIZ032>034-041-042-053>061-220600-
SOUTHWEST WISCONSIN

CITY           SKY/WX    TMP DP  RH WIND       PRES   REMARKS
LA CROSSE      FAIR      45  33  63 E3        30.36F
SPARTA         FAIR      32  28  86 CALM      30.39S
VIROQUA        MOCLDY    44  32  64 E6        30.36F
BOSCOBEL       FAIR      36  32  85 CALM      30.37F
PRAIRIE DU CHI FAIR      41  33  71 CALM      30.36S
PLATTEVILLE    CLOUDY    45  37  71 E8        30.37S
$$

WIZ056-057-062-063-064-067-068-220600-
SOUTH CENTRAL WISCONSIN

CITY           SKY/WX    TMP DP  RH WIND       PRES   REMARKS
REEDSBURG      FAIR      40  32  72 NE3       30.37S
BARABOO/DELLS  FAIR      38  29  68 CALM      30.38S
LONE ROCK      NOT AVBL
MINERAL POINT  FAIR      45  34  65 E6        30.37S
MADISON        FAIR      37  32  82 N3        30.37F
MIDDLETON      FAIR      39  35  83 CALM      30.38F
WATERTOWN      FAIR      34  31  90 CALM      30.38S
MONROE         FAIR      45  30  57 E5        30.37S
JANESVILLE     FAIR      41  30  65 NE5       30.38F
$$

WIZ051-052-058>065-066-070>072-220600-
SOUTHEAST WISCONSIN

CITY           SKY/WX    TMP DP  RH WIND       PRES   REMARKS
MILWAUKEE      FAIR      44  22  41 CALM      30.39F
WAUKESHA       FAIR      37  23  56 CALM      30.39F
MILWAUKEE/TIMM FAIR      41  19  42 CALM      30.40S
RACINE         FAIR      36  25  64 CALM      30.40F
BURLINGTON     FAIR      37  29  74 CALM      30.38F
KENOSHA        FAIR      39  24  55 CALM      30.38F
FOND DU LAC    FAIR      34  28  79 S3        30.38S
SHEBOYGAN      FAIR      34  29  82 W3        30.38F
WEST BEND      FAIR      34  28  80 CALM      30.39S
JUNEAU         MOCLDY    39  32  76 CALM      30.39F
$$

LSZ147-162-220600-
LAKE SUPERIOR

STATION/POSITION TIME  TEMP    WIND        PRES    WAVE
                       AIR SEA DIR/SP/G            HT/PER
                 (UTC) (F)     (DEG/KT/KT) (MB)    (FT/S)
DEVILS ISLAND    0400   46     140/  9/ 10 1028.6S
SAXON HARBOR     0430   30     180/  2/  2 1027.4F
$$

LMZ867-665-643>646-220600-
LAKE MICHIGAN

STATION/POSITION TIME  TEMP    WIND        PRES    WAVE
                       AIR SEA DIR/SP/G            HT/PER
                 (UTC) (F)     (DEG/KT/KT) (MB)    (FT/S)
NORTHPORT PIER   0440   36                 1028.4S
KEWAUNEE LAKESHO 0430   41     310/  3/  4 1027.9F
SHEBOYGAN LAKESH 0400   46     270/  6/  6 1029.2F
PORT WASHINGTON  0440   38      CALM  /  2 1029.8S
MILWAUKEE LAKESH 0430   43     230/  2/  2   N/A
KENOSHA   LAKESH 0400   45                 1029.1
$$

TC  - TEMPERATURE IN CELSIUS
VSB - VISIBILITY IN STATUTE MILES
WCI - WIND CHILL INDEX
HX  - HEAT INDEX





USA.gov is the U.S. government's official web portal to all federal, state and local government web resources and services.